Location: Hickory_CSC
(35.7330°N, 81.3330°W)
Time: 13:53:14
(UTC-04:00)

ISS - All Passes

Search period start: 01 April 2015 00:00
Search period end: 11 April 2015 00:00
Orbit: 396 x 405 km, 51.6° (Epoch: 01 April)

Date Brightness Start Highest point End Pass type
(mag) Time Alt. Az. Time Alt. Az. Time Alt. Az.
01 Apr - 03:49:13 10° N 03:49:56 11° NNE 03:50:45 10° NE night (unlit)
01 Apr - 05:23:42 10° NW 05:26:54 63° NE 05:30:06 10° ESE visible
01 Apr - 22:00:23 10° SW 22:03:38 81° NW 22:06:54 10° NE visible
01 Apr - 23:39:05 10° NW 23:40:30 12° NNW 23:41:53 10° N night (unlit)
02 Apr - 04:30:26 10° NNW 04:33:20 30° NE 04:36:15 10° E visible
02 Apr - 06:07:06 10° W 06:09:37 21° SW 06:12:04 10° S visible
02 Apr - 21:07:04 10° SSW 21:10:11 43° SE 21:13:17 10° ENE visible
02 Apr - 22:44:17 10° WNW 22:46:43 19° NNW 22:49:07 10° NNE visible
03 Apr - 03:37:20 10° NNW 03:39:37 18° NNE 03:41:57 10° ENE night (unlit)
03 Apr - 05:13:05 10° WNW 05:16:12 46° SW 05:19:17 10° SSE visible
03 Apr - 20:14:20 10° S 20:16:44 20° SE 20:19:13 10° E visible
03 Apr - 21:50:01 10° WSW 21:53:00 32° NW 21:55:59 10° NNE visible
04 Apr - 02:44:37 10° N 02:45:47 12° NNE 02:47:02 10° NE night (unlit)
04 Apr - 04:19:27 10° NW 04:22:41 75° NE 04:25:54 10° SE night (unlit)
04 Apr - 20:56:06 10° SW 20:59:20 68° NW 21:02:36 10° NE visible
04 Apr - 22:35:11 10° NW 22:36:16 11° NNW 22:37:18 10° N visible
05 Apr - 03:26:02 10° NNW 03:29:02 35° NE 03:32:03 10° ESE night (unlit)
05 Apr - 05:02:58 10° W 05:05:15 18° SW 05:07:29 10° S night (unlit)
05 Apr - 20:02:36 10° SSW 20:05:45 51° SE 20:08:56 10° ENE daylight
05 Apr - 21:40:05 10° WNW 21:42:22 17° NNW 21:44:36 10° NNE visible
06 Apr - 02:32:48 10° NNW 02:35:15 20° NNE 02:37:44 10° E night (unlit)
06 Apr - 04:08:43 10° WNW 04:11:45 38° SW 04:14:46 10° SSE night (unlit)
06 Apr - 19:09:36 10° S 19:12:13 23° SE 19:14:53 10° ENE daylight
06 Apr - 20:45:37 10° W 20:48:31 29° NW 20:51:25 10° NNE visible
07 Apr - 01:39:51 10° N 01:41:20 13° NNE 01:42:53 10° NE night (unlit)
07 Apr - 03:14:55 10° NW 03:18:10 88° NE 03:21:23 10° SE night (unlit)
07 Apr - 18:17:57 10° SE 18:18:41 11° SE 18:19:34 10° ESE daylight
07 Apr - 19:51:32 10° WSW 19:54:45 58° NW 19:57:58 10° NE daylight
07 Apr - 21:31:07 10° NNW 21:31:44 10° NNW 21:32:17 10° NNW visible
08 Apr - 02:21:21 10° NW 02:24:26 40° NE 02:27:30 10° ESE night (unlit)
08 Apr - 03:58:34 10° W 04:00:36 15° SW 04:02:31 10° SSW night (unlit)
08 Apr - 18:57:50 10° SW 19:01:03 61° SE 19:04:16 10° NE daylight
08 Apr - 20:35:36 10° WNW 20:37:43 16° NNW 20:39:46 10° NNE visible
09 Apr - 01:27:58 10° NNW 01:30:34 22° NNE 01:33:10 10° E night (unlit)
09 Apr - 03:04:03 10° WNW 03:07:00 33° SW 03:09:56 10° SSE night (unlit)
09 Apr - 18:04:37 10° S 18:07:23 26° SE 18:10:12 10° ENE daylight
09 Apr - 19:40:56 10° W 19:43:44 26° NNW 19:46:32 10° NNE daylight
10 Apr - 00:34:50 10° N 00:36:34 14° NNE 00:38:21 10° ENE night (unlit)
10 Apr - 02:10:06 10° NW 02:13:19 79° SW 02:16:32 10° SE night (unlit)
10 Apr - 17:12:22 10° SSE 17:13:45 12° SE 17:15:17 10° E daylight
10 Apr - 18:46:40 10° WSW 18:49:51 50° NW 18:53:02 10° NE daylight
